Starlink 3324

operational
NORAD ID: 50814 Int'l Des: 2022-001 Owner: SPXS Country: US Constellation: starlink
LEOCIRCULAR

Starlink 3324について

説明を読み込み中...

リアルタイム位置

3D地球を読み込み中...

次回通過

高度履歴

Altitude vs Time

uPlot chart will show altitude changes over time

軌道要素

1 50814U 22001M 25346.86567419 .00000125 00000-0 25968-4 0 9991
2 50814 53.2168 198.8877 0001679 96.2158 263.9026 15.08838238217304
Epoch: Dec 12, 2025 • Age: 34 hours

現在のステータス

高度 549.1 km
速度 7.59 km/s
衛星直下点 -29.25°S, 152.95°W
打ち上げ日 Jan 6, 2022
運用期間 3.9 years
タイプ internet

技術仕様

分類 Payload
質量 297.00 kg
乾燥質量 275.00 kg
総質量 297.00 kg
長さ 0.20 m
直径 2.80 m
スパン 9.00 m
形状 Box + pan
製造者 SPXS
バスタイプ Starlink
フェーズステータス In Orbit
所有者/国 SPXS/US

大規模コンステレーション

Loading constellations...